Flag for Argentina Weather past 2 weeks in Salta, Salta, Argentina

Now
68 °F

Passing clouds.


Feels Like: 68 °F
Forecast: 41 / 70 °F
Wind: 6 mph from East

Location: Salta Aerodrome

Current Time: Jul 22, 2014 at 2:49:46 PM

Latest Report: Jul 22, 2014 at 1:00 PM


Visibility: N/A

Pressure: 29.86 "Hg

Humidity: 49%

Dew point: 48 °F

Location of SaltaLocation

Historic Weather in Salta — Graph

°F

Salta temperature yesterday

Maximum temperature yesterday: 86 °F (at 4:00 PM)
Minimum temperature yesterday: 39 °F (at 5:00 AM)
Average temperature yesterday: 58 °F

Past Weeks' High & Low Weather Summary

 TemperatureHumidityPressure
High86 °F (Jul 21, 4:00 PM)100% (Jul 9, 4:00 AM)30.51 "Hg (Jul 9, 4:00 AM)
Low32 °F (Jul 11, 8:00 AM)11% (Jul 21, 4:00 PM)29.74 "Hg (Jul 21, 4:00 PM)
Average54 °F70%30.14 "Hg
* Reported Jul 7 1:00 PM — Jul 22 1:00 PM, Salta, Weather by CustomWeather, © 2014

Note: Actual official high and low records may vary slightly from our data, if they occured in-between our weather recording intervals... More about our weather records

Advertising

Salta weather history for previous 24 hours

 ConditionsComfort  
Time TempWeatherWind HumidityBarometerVisibility
1:00 PM
Jul 22
68 °FPassing clouds.6 mph49%29.86 "HgN/A
12:00 PM64 °FPassing clouds.3 mph52%29.89 "HgN/A
11:00 AM61 °FSunny.No wind59%29.92 "Hg10 mi
10:00 AM52 °FSunny.2 mph82%29.92 "Hg10 mi
9:00 AM45 °FSunny.No wind87%29.92 "Hg10 mi
8:00 AM41 °FSunny.2 mph93%29.89 "Hg10 mi
7:00 AM41 °FClear.No wind93%29.89 "Hg10 mi
6:00 AM43 °FClear.2 mph87%29.89 "Hg10 mi
5:00 AM46 °FClear.3 mph82%29.89 "Hg10 mi
4:00 AM46 °FClear.7 mph87%29.89 "Hg10 mi
3:00 AM45 °FClear.2 mph87%29.92 "Hg10 mi
2:00 AM50 °FClear.5 mph76%29.92 "Hg10 mi
1:00 AM50 °FClear.No wind82%29.92 "Hg10 mi
12:00 AM54 °FClear.2 mph72%29.92 "Hg10 mi
11:00 PM
Jul 21
55 °FClear.7 mph82%29.92 "Hg10 mi
10:00 PM57 °FClear.6 mph67%29.92 "Hg10 mi
9:00 PM63 °FClear.9 mph56%29.92 "Hg10 mi
8:00 PM64 °FClear.9 mph52%29.89 "Hg10 mi
6:00 PM79 °FClear.14 mph23%29.80 "Hg10 mi
5:00 PM86 °FSunny.14 mph15%29.77 "Hg10 mi
4:00 PM86 °FSunny.5 mph11%29.74 "Hg10 mi
3:00 PM81 °FSunny.2 mph18%29.77 "Hg10 mi
2:00 PM77 °FSunny.3 mph22%29.80 "Hg10 mi
Weather by CustomWeather, © 2014

See weather overviewHow to use our weather pages